Time,TemperatureF,DewpointF,PressureIn,WindDirection,WindDirectionDegrees,WindSpeedMPH,WindSpeedGustMPH,Humidity,HourlyPrecipIn,Conditions,Clouds,dailyrainin,SolarRadiationWatts/m^2,SoftwareType,DateUTC
2013-02-16 00:12:00,52.7,15.0,30.30,ESE,106,3.0,5.0,22,0.00,,,0.00,0,weatherlink.com 1.10,2013-02-16 07:12:00,
2013-02-16 00:26:00,53.3,15.0,30.30,ESE,106,3.0,8.0,22,0.00,,,0.00,0,weatherlink.com 1.10,2013-02-16 07:26:00,
2013-02-16 00:42:00,54.0,15.0,30.30,ESE,103,1.0,8.0,21,0.00,,,0.00,0,weatherlink.com 1.10,2013-02-16 07:42:00,
2013-02-16 00:57:00,51.4,17.0,30.31,ESE,102,0.0,3.0,26,0.00,,,0.00,0,weatherlink.com 1.10,2013-02-16 07:57:00,
2013-02-16 01:12:00,49.5,17.0,30.30,ESE,102,1.0,2.0,28,0.00,,,0.00,0,weatherlink.com 1.10,2013-02-16 08:12:00,
2013-02-16 01:27:00,48.7,16.0,30.30,ESE,104,0.0,6.0,27,0.00,,,0.00,0,weatherlink.com 1.10,2013-02-16 08:27:00,
2013-02-16 01:42:00,48.9,16.0,30.31,ESE,104,1.0,2.0,27,0.00,,,0.00,0,weatherlink.com 1.10,2013-02-16 08:42:00,
2013-02-16 01:57:00,49.6,15.0,30.31,ESE,107,2.0,5.0,25,0.00,,,0.00,0,weatherlink.com 1.10,2013-02-16 08:57:00,
2013-02-16 02:12:00,51.4,15.0,30.31,SE,146,2.0,7.0,23,0.00,,,0.00,0,weatherlink.com 1.10,2013-02-16 09:12:00,
2013-02-16 02:27:00,53.9,15.0,30.31,SE,131,5.0,11.0,21,0.00,,,0.00,0,weatherlink.com 1.10,2013-02-16 09:27:00,
2013-02-16 02:42:00,54.4,14.0,30.31,SE,125,6.0,15.0,20,0.00,,,0.00,0,weatherlink.com 1.10,2013-02-16 09:42:00,
2013-02-16 02:57:00,54.5,14.0,30.30,ESE,117,11.0,13.0,20,0.00,,,0.00,0,weatherlink.com 1.10,2013-02-16 09:57:00,
2013-02-16 03:12:00,54.6,13.0,30.30,ESE,106,8.0,13.0,19,0.00,,,0.00,0,weatherlink.com 1.10,2013-02-16 10:12:00,
2013-02-16 03:27:00,54.4,14.0,30.29,South,170,6.0,12.0,20,0.00,,,0.00,0,weatherlink.com 1.10,2013-02-16 10:27:00,
2013-02-16 03:42:00,53.9,14.0,30.28,South,171,4.0,8.0,20,0.00,,,0.00,0,weatherlink.com 1.10,2013-02-16 10:42:00,
2013-02-16 03:57:00,53.4,14.0,30.27,South,171,5.0,9.0,21,0.00,,,0.00,0,weatherlink.com 1.10,2013-02-16 10:57:00,
2013-02-16 04:12:00,54.6,15.0,30.27,SE,134,4.0,10.0,21,0.00,,,0.00,0,weatherlink.com 1.10,2013-02-16 11:12:00,
2013-02-16 04:27:00,54.7,14.0,30.27,SSE,163,4.0,11.0,20,0.00,,,0.00,0,weatherlink.com 1.10,2013-02-16 11:27:00,
2013-02-16 04:42:00,55.2,15.0,30.27,SE,146,7.0,16.0,20,0.00,,,0.00,0,weatherlink.com 1.10,2013-02-16 11:42:00,
2013-02-16 04:57:00,55.8,14.0,30.26,SE,124,9.0,16.0,19,0.00,,,0.00,0,weatherlink.com 1.10,2013-02-16 11:57:00,
2013-02-16 05:12:00,55.8,15.0,30.26,SE,136,2.0,17.0,20,0.00,,,0.00,0,weatherlink.com 1.10,2013-02-16 12:12:00,
2013-02-16 05:27:00,55.2,15.0,30.26,SSE,164,3.0,10.0,20,0.00,,,0.00,0,weatherlink.com 1.10,2013-02-16 12:27:00,
2013-02-16 05:42:00,55.3,13.0,30.26,SSE,163,12.0,15.0,19,0.00,,,0.00,0,weatherlink.com 1.10,2013-02-16 12:42:00,
2013-02-16 05:57:00,56.1,13.0,30.25,SSE,159,7.0,13.0,18,0.00,,,0.00,0,weatherlink.com 1.10,2013-02-16 12:57:00,
2013-02-16 06:12:00,55.5,14.0,30.25,SSE,154,9.0,16.0,19,0.00,,,0.00,0,weatherlink.com 1.10,2013-02-16 13:12:00,
2013-02-16 06:27:00,55.0,13.0,30.25,South,180,2.0,12.0,19,0.00,,,0.00,0,weatherlink.com 1.10,2013-02-16 13:27:00,
2013-02-16 06:43:00,55.3,13.0,30.25,South,184,7.0,14.0,19,0.00,,,0.00,0,weatherlink.com 1.10,2013-02-16 13:43:00,
2013-02-16 06:57:00,55.5,14.0,30.26,SE,146,2.0,13.0,19,0.00,,,0.00,0,weatherlink.com 1.10,2013-02-16 13:57:00,
2013-02-16 07:12:00,55.8,13.0,30.26,SSE,160,5.0,14.0,18,0.00,,,0.00,9,weatherlink.com 1.10,2013-02-16 14:12:00,
2013-02-16 07:27:00,55.2,13.0,30.26,SE,135,5.0,10.0,19,0.00,,,0.00,18,weatherlink.com 1.10,2013-02-16 14:27:00,
2013-02-16 07:43:00,55.9,15.0,30.26,SSE,167,3.0,11.0,20,0.00,,,0.00,83,weatherlink.com 1.10,2013-02-16 14:43:00,
2013-02-16 07:58:00,57.2,16.0,30.27,SSE,164,5.0,10.0,20,0.00,,,0.00,146,weatherlink.com 1.10,2013-02-16 14:58:00,
2013-02-16 08:12:00,58.1,16.0,30.27,SSE,152,4.0,15.0,19,0.00,,,0.00,214,weatherlink.com 1.10,2013-02-16 15:12:00,
2013-02-16 08:28:00,59.5,16.0,30.27,SSE,150,7.0,13.0,18,0.00,,,0.00,287,weatherlink.com 1.10,2013-02-16 15:28:00,
2013-02-16 08:43:00,60.5,15.0,30.27,SE,126,8.0,11.0,17,0.00,,,0.00,343,weatherlink.com 1.10,2013-02-16 15:43:00,
2013-02-16 08:58:00,60.9,17.0,30.27,SSE,159,11.0,19.0,18,0.00,,,0.00,396,weatherlink.com 1.10,2013-02-16 15:58:00,
2013-02-16 09:13:00,61.8,16.0,30.27,NE,55,8.0,17.0,17,0.00,,,0.00,446,weatherlink.com 1.10,2013-02-16 16:13:00,
2013-02-16 09:28:00,62.0,15.0,30.27,ESE,116,10.0,25.0,16,0.00,,,0.00,499,weatherlink.com 1.10,2013-02-16 16:28:00,
2013-02-16 09:58:00,63.0,13.0,30.26,SSE,163,5.0,31.0,14,0.00,,,0.00,587,weatherlink.com 1.10,2013-02-16 16:58:00,
2013-02-16 10:28:00,64.6,12.0,30.26,ESE,113,8.0,26.0,13,0.00,,,0.00,664,weatherlink.com 1.10,2013-02-16 17:28:00,
2013-02-16 10:43:00,65.6,13.0,30.25,East,99,11.0,24.0,13,0.00,,,0.00,698,weatherlink.com 1.10,2013-02-16 17:43:00,
2013-02-16 10:58:00,66.2,12.0,30.25,East,92,8.0,27.0,12,0.00,,,0.00,728,weatherlink.com 1.10,2013-02-16 17:58:00,
2013-02-16 11:13:00,67.2,13.0,30.24,East,83,11.0,24.0,12,0.00,,,0.00,751,weatherlink.com 1.10,2013-02-16 18:13:00,
2013-02-16 11:28:00,67.4,9.0,30.24,SE,131,17.0,25.0,10,0.00,,,0.00,772,weatherlink.com 1.10,2013-02-16 18:28:00,
2013-02-16 11:43:00,68.4,12.0,30.23,East,101,15.0,25.0,11,0.00,,,0.00,786,weatherlink.com 1.10,2013-02-16 18:43:00,
2013-02-16 11:59:00,69.0,8.0,30.21,ESE,110,11.0,26.0,9,0.00,,,0.00,800,weatherlink.com 1.10,2013-02-16 18:59:00,
2013-02-16 12:14:00,69.6,8.0,30.20,East,100,26.0,26.0,9,0.00,,,0.00,805,weatherlink.com 1.10,2013-02-16 19:14:00,
2013-02-16 12:29:00,70.0,6.0,30.20,ESE,102,17.0,27.0,8,0.00,,,0.00,810,weatherlink.com 1.10,2013-02-16 19:29:00,
2013-02-16 12:44:00,70.5,6.0,30.18,East,92,8.0,25.0,8,0.00,,,0.00,810,weatherlink.com 1.10,2013-02-16 19:44:00,
2013-02-16 12:59:00,70.7,6.0,30.16,ESE,116,17.0,22.0,8,0.00,,,0.00,823,weatherlink.com 1.10,2013-02-16 19:59:00,
2013-02-16 13:14:00,71.1,7.0,30.16,East,95,17.0,24.0,8,0.00,,,0.00,791,weatherlink.com 1.10,2013-02-16 20:14:00,
2013-02-16 13:29:00,71.9,4.0,30.14,East,96,10.0,24.0,7,0.00,,,0.00,56,weatherlink.com 1.10,2013-02-16 20:29:00,
2013-02-16 13:44:00,71.9,7.0,30.14,ESE,123,10.0,23.0,8,0.00,,,0.00,761,weatherlink.com 1.10,2013-02-16 20:44:00,
2013-02-16 13:59:00,72.5,8.0,30.13,ESE,103,16.0,22.0,8,0.00,,,0.00,738,weatherlink.com 1.10,2013-02-16 20:59:00,
2013-02-16 14:14:00,73.0,8.0,30.12,East,99,10.0,23.0,8,0.00,,,0.00,708,weatherlink.com 1.10,2013-02-16 21:14:00,
2013-02-16 14:29:00,72.9,5.0,30.11,East,82,19.0,22.0,7,0.00,,,0.00,679,weatherlink.com 1.10,2013-02-16 21:29:00,
2013-02-16 14:44:00,72.9,2.0,30.10,South,182,9.0,25.0,6,0.00,,,0.00,643,weatherlink.com 1.10,2013-02-16 21:44:00,
2013-02-16 14:59:00,73.3,5.0,30.09,SE,132,13.0,20.0,7,0.00,,,0.00,608,weatherlink.com 1.10,2013-02-16 21:59:00,
2013-02-16 15:14:00,73.2,2.0,30.09,SE,124,11.0,21.0,6,0.00,,,0.00,566,weatherlink.com 1.10,2013-02-16 22:14:00,
2013-02-16 15:29:00,73.5,6.0,30.08,ESE,104,17.0,21.0,7,0.00,,,0.00,520,weatherlink.com 1.10,2013-02-16 22:29:00,
2013-02-16 15:45:00,73.3,2.0,30.07,ENE,68,16.0,21.0,6,0.00,,,0.00,476,weatherlink.com 1.10,2013-02-16 22:45:00,
2013-02-16 15:59:00,73.5,6.0,30.07,SE,140,10.0,17.0,7,0.00,,,0.00,424,weatherlink.com 1.10,2013-02-16 22:59:00,
2013-02-16 16:14:00,73.3,2.0,30.07,East,98,11.0,18.0,6,0.00,,,0.00,371,weatherlink.com 1.10,2013-02-16 23:14:00,
2013-02-16 16:29:00,73.0,2.0,30.06,ESE,111,12.0,18.0,6,0.00,,,0.00,320,weatherlink.com 1.10,2013-02-16 23:29:00,
2013-02-16 16:44:00,72.9,2.0,30.06,ESE,105,9.0,17.0,6,0.00,,,0.00,265,weatherlink.com 1.10,2013-02-16 23:44:00,
2013-02-16 17:00:00,72.7,2.0,30.05,SSE,148,11.0,19.0,6,0.00,,,0.00,199,weatherlink.com 1.10,2013-02-17 00:00:00,
2013-02-16 17:15:00,72.0,1.0,30.05,ESE,112,4.0,16.0,6,0.00,,,0.00,134,weatherlink.com 1.10,2013-02-17 00:15:00,
2013-02-16 17:30:00,71.3,4.0,30.05,ESE,112,9.0,13.0,7,0.00,,,0.00,70,weatherlink.com 1.10,2013-02-17 00:30:00,
2013-02-16 17:45:00,70.4,3.0,30.05,East,94,7.0,16.0,7,0.00,,,0.00,28,weatherlink.com 1.10,2013-02-17 00:45:00,
2013-02-16 18:00:00,69.3,5.0,30.06,SE,134,7.0,11.0,8,0.00,,,0.00,12,weatherlink.com 1.10,2013-02-17 01:00:00,
2013-02-16 18:15:00,68.1,7.0,30.05,ESE,105,4.0,10.0,9,0.00,,,0.00,0,weatherlink.com 1.10,2013-02-17 01:15:00,
2013-02-16 18:30:00,66.6,8.0,30.06,ESE,117,2.0,12.0,10,0.00,,,0.00,0,weatherlink.com 1.10,2013-02-17 01:30:00,
2013-02-16 18:45:00,65.6,9.0,30.06,ENE,68,5.0,11.0,11,0.00,,,0.00,0,weatherlink.com 1.10,2013-02-17 01:45:00,
2013-02-16 19:00:00,64.9,9.0,30.06,East,87,8.0,11.0,11,0.00,,,0.00,0,weatherlink.com 1.10,2013-02-17 02:00:00,
2013-02-16 19:16:00,64.4,9.0,30.06,SE,138,5.0,9.0,11,0.00,,,0.00,0,weatherlink.com 1.10,2013-02-17 02:16:00,
2013-02-16 19:30:00,64.0,8.0,30.06,East,96,6.0,11.0,11,0.00,,,0.00,0,weatherlink.com 1.10,2013-02-17 02:30:00,
2013-02-16 19:45:00,63.7,8.0,30.06,ESE,122,8.0,13.0,11,0.00,,,0.00,0,weatherlink.com 1.10,2013-02-17 02:45:00,
2013-02-16 20:01:00,62.8,7.0,30.05,ESE,109,4.0,10.0,11,0.00,,,0.00,0,weatherlink.com 1.10,2013-02-17 03:01:00,
2013-02-16 20:15:00,62.2,7.0,30.05,East,100,6.0,11.0,11,0.00,,,0.00,0,weatherlink.com 1.10,2013-02-17 03:15:00,
2013-02-16 20:31:00,62.7,7.0,30.05,East,96,8.0,13.0,11,0.00,,,0.00,0,weatherlink.com 1.10,2013-02-17 03:31:00,
2013-02-16 20:46:00,62.7,5.0,30.05,ESE,122,5.0,11.0,10,0.00,,,0.00,0,weatherlink.com 1.10,2013-02-17 03:46:00,
2013-02-16 21:01:00,62.9,5.0,30.04,East,94,8.0,19.0,10,0.00,,,0.00,0,weatherlink.com 1.10,2013-02-17 04:01:00,
2013-02-16 21:16:00,63.0,5.0,30.05,SE,138,4.0,9.0,10,0.00,,,0.00,0,weatherlink.com 1.10,2013-02-17 04:16:00,
2013-02-16 21:31:00,61.6,6.0,30.05,SSE,148,4.0,8.0,11,0.00,,,0.00,0,weatherlink.com 1.10,2013-02-17 04:31:00,
2013-02-16 21:46:00,62.3,5.0,30.05,ESE,112,5.0,9.0,10,0.00,,,0.00,0,weatherlink.com 1.10,2013-02-17 04:46:00,
2013-02-16 22:01:00,61.8,6.0,30.05,SE,129,4.0,8.0,11,0.00,,,0.00,0,weatherlink.com 1.10,2013-02-17 05:01:00,
2013-02-16 22:16:00,60.9,6.0,30.05,ESE,114,1.0,7.0,11,0.00,,,0.00,0,weatherlink.com 1.10,2013-02-17 05:16:00,
2013-02-16 22:31:00,61.0,8.0,30.05,SE,128,0.0,8.0,12,0.00,,,0.00,0,weatherlink.com 1.10,2013-02-17 05:31:00,
2013-02-16 22:46:00,58.1,9.0,30.05,SSE,162,1.0,2.0,14,0.00,,,0.00,0,weatherlink.com 1.10,2013-02-17 05:46:00,
2013-02-16 23:01:00,57.7,7.0,30.05,SE,132,6.0,9.0,13,0.00,,,0.00,0,weatherlink.com 1.10,2013-02-17 06:01:00,
2013-02-16 23:19:00,59.1,8.0,30.04,SE,135,1.0,6.0,13,0.00,,,0.00,0,weatherlink.com 1.10,2013-02-17 06:19:00,
2013-02-16 23:31:00,56.4,9.0,30.03,SE,135,1.0,2.0,15,0.00,,,0.00,0,weatherlink.com 1.10,2013-02-17 06:31:00,
2013-02-16 23:47:00,55.6,8.0,30.03,ESE,119,2.0,7.0,15,0.00,,,0.00,0,weatherlink.com 1.10,2013-02-17 06:47:00,